Year,Month,Day,Hour,Minute,Value (Times are PST for temperature in C)
2018,10,21,00,00,7.90
2018,10,21,00,01,7.90
2018,10,21,00,02,7.90
2018,10,21,00,03,7.90
2018,10,21,00,05,7.80
2018,10,21,00,06,7.80
2018,10,21,00,07,7.80
2018,10,21,00,08,7.80
2018,10,21,00,09,7.80
2018,10,21,00,10,7.80
2018,10,21,00,12,7.80
2018,10,21,00,13,7.80
2018,10,21,00,14,7.80
2018,10,21,00,15,7.80
2018,10,21,00,16,7.80
2018,10,21,00,17,7.80
2018,10,21,00,19,7.80
2018,10,21,00,21,7.70
2018,10,21,00,22,7.70
2018,10,21,00,24,7.70
2018,10,21,00,25,7.70
2018,10,21,00,27,7.70
2018,10,21,00,29,7.70
2018,10,21,00,30,7.70
2018,10,21,00,31,7.70
2018,10,21,00,33,7.70
2018,10,21,00,34,7.70
2018,10,21,00,35,7.70
2018,10,21,00,37,7.70
2018,10,21,00,38,7.70
2018,10,21,00,39,7.70
2018,10,21,00,40,7.70
2018,10,21,00,41,7.70
2018,10,21,00,42,7.70
2018,10,21,00,43,7.70
2018,10,21,00,44,7.70
2018,10,21,00,45,7.70
2018,10,21,00,46,7.70
2018,10,21,00,47,7.80
2018,10,21,00,48,7.80
2018,10,21,00,49,7.80
2018,10,21,00,51,7.80
2018,10,21,00,52,7.80
2018,10,21,00,53,7.80
2018,10,21,00,54,7.80
2018,10,21,00,55,7.80
2018,10,21,00,56,7.80
2018,10,21,00,57,7.90
2018,10,21,00,59,7.90
2018,10,21,01,00,7.90
2018,10,21,01,01,7.90
2018,10,21,01,02,7.90
2018,10,21,01,03,8.00
2018,10,21,01,04,7.90
2018,10,21,01,05,8.00
2018,10,21,01,07,8.00
2018,10,21,01,08,8.00
2018,10,21,01,09,8.10
2018,10,21,01,10,8.10
2018,10,21,01,11,8.10
2018,10,21,01,12,8.10
2018,10,21,01,14,8.10
2018,10,21,01,15,8.10
2018,10,21,01,16,8.10
2018,10,21,01,18,8.10
2018,10,21,01,19,8.10
2018,10,21,01,20,8.10
2018,10,21,01,21,8.10
2018,10,21,01,23,8.10
2018,10,21,01,24,8.20
2018,10,21,01,25,8.20
2018,10,21,01,26,8.20
2018,10,21,01,27,8.20
2018,10,21,01,29,8.20
2018,10,21,01,30,8.20
2018,10,21,01,32,8.20
2018,10,21,01,33,8.10
2018,10,21,01,34,8.10
2018,10,21,01,35,8.10
2018,10,21,01,36,8.10
2018,10,21,01,37,8.10
2018,10,21,01,38,8.10
2018,10,21,01,39,8.00
2018,10,21,01,41,8.00
2018,10,21,01,42,7.90
2018,10,21,01,43,7.90
2018,10,21,01,45,7.90
2018,10,21,01,46,7.90
2018,10,21,01,47,7.90
2018,10,21,01,48,7.90
2018,10,21,01,50,7.90
2018,10,21,01,52,7.90
2018,10,21,01,53,7.90
2018,10,21,01,55,7.90
2018,10,21,01,56,7.90
2018,10,21,01,57,7.90
2018,10,21,01,58,7.90
2018,10,21,01,59,7.90
2018,10,21,02,00,7.80
2018,10,21,02,01,7.80
2018,10,21,02,03,7.80
2018,10,21,02,04,7.80
2018,10,21,02,06,7.80
2018,10,21,02,07,7.80
2018,10,21,02,08,7.80
2018,10,21,02,09,7.80
2018,10,21,02,10,7.80
2018,10,21,02,12,7.80
2018,10,21,02,14,7.80
2018,10,21,02,16,7.80
2018,10,21,02,17,7.80
2018,10,21,02,18,7.80
2018,10,21,02,20,7.80
2018,10,21,02,21,7.80
2018,10,21,02,23,7.80
2018,10,21,02,24,7.80
2018,10,21,02,25,7.80
2018,10,21,02,26,7.80
2018,10,21,02,27,7.80
2018,10,21,02,28,7.80
2018,10,21,02,30,7.80
2018,10,21,02,31,7.80
2018,10,21,02,32,7.80
2018,10,21,02,33,7.80
2018,10,21,02,35,7.80
2018,10,21,02,36,7.80
2018,10,21,02,37,7.80
2018,10,21,02,39,7.80
2018,10,21,02,41,7.80
2018,10,21,02,43,7.90
2018,10,21,02,44,7.90
2018,10,21,02,45,7.90
2018,10,21,02,46,7.90
2018,10,21,02,47,7.90
2018,10,21,02,48,7.90
2018,10,21,02,49,7.90
2018,10,21,02,50,7.90
2018,10,21,02,51,7.90
2018,10,21,02,52,7.90
2018,10,21,02,53,7.90
2018,10,21,02,55,7.90
2018,10,21,02,56,7.90
2018,10,21,02,57,7.90
2018,10,21,02,58,7.90
2018,10,21,03,00,7.90
2018,10,21,03,01,7.90
2018,10,21,03,03,7.90
2018,10,21,03,04,7.90
2018,10,21,03,05,7.90
2018,10,21,03,06,7.90
2018,10,21,03,07,7.90
2018,10,21,03,08,7.90
2018,10,21,03,09,7.90
2018,10,21,03,10,7.90
2018,10,21,03,12,7.90
2018,10,21,03,13,7.90
2018,10,21,03,14,7.90
2018,10,21,03,15,7.90
2018,10,21,03,17,7.90
2018,10,21,03,18,7.90
2018,10,21,03,19,7.90
2018,10,21,03,20,7.90
2018,10,21,03,22,7.90
2018,10,21,03,23,7.90
2018,10,21,03,24,7.90
2018,10,21,03,25,7.90
2018,10,21,03,26,7.90
2018,10,21,03,27,7.90
2018,10,21,03,28,7.90
2018,10,21,03,29,7.90
2018,10,21,03,30,7.90
2018,10,21,03,31,7.90
2018,10,21,03,32,7.90
2018,10,21,03,34,7.90
2018,10,21,03,35,7.90
2018,10,21,03,36,7.90
2018,10,21,03,37,7.90
2018,10,21,03,38,7.90
2018,10,21,03,40,7.90
2018,10,21,03,41,7.90
2018,10,21,03,43,7.90
2018,10,21,03,44,7.90
2018,10,21,03,46,7.90
2018,10,21,03,47,7.90
2018,10,21,03,48,7.90
2018,10,21,03,49,7.90
2018,10,21,03,51,7.90
2018,10,21,03,52,7.90
2018,10,21,03,54,7.90
2018,10,21,03,55,7.90
2018,10,21,03,57,7.90
2018,10,21,03,58,7.90
2018,10,21,03,59,7.90
2018,10,21,04,00,7.90
2018,10,21,04,01,7.90
2018,10,21,04,03,7.90
2018,10,21,04,05,7.80
2018,10,21,04,06,7.80
2018,10,21,04,07,7.90
2018,10,21,04,08,7.80
2018,10,21,04,09,7.80
2018,10,21,04,10,7.80
2018,10,21,04,11,7.80
2018,10,21,04,12,7.80
2018,10,21,04,13,7.80
2018,10,21,04,14,7.80
2018,10,21,04,16,7.80
2018,10,21,04,17,7.80
2018,10,21,04,18,7.80
2018,10,21,04,19,7.80
2018,10,21,04,20,7.80
2018,10,21,04,21,7.80
2018,10,21,04,22,7.70
2018,10,21,04,23,7.70
2018,10,21,04,24,7.70
2018,10,21,04,25,7.70
2018,10,21,04,27,7.70
2018,10,21,04,28,7.70
2018,10,21,04,29,7.70
2018,10,21,04,31,7.70
2018,10,21,04,32,7.70
2018,10,21,04,34,7.60
2018,10,21,04,35,7.60
2018,10,21,04,36,7.60
2018,10,21,04,37,7.60
2018,10,21,04,38,7.60
2018,10,21,04,40,7.60
2018,10,21,04,42,7.60
2018,10,21,04,43,7.60
2018,10,21,04,44,7.60
2018,10,21,04,45,7.60
2018,10,21,04,46,7.60
2018,10,21,04,47,7.60
2018,10,21,04,48,7.60
2018,10,21,04,49,7.60
2018,10,21,04,50,7.60
2018,10,21,04,52,7.70
2018,10,21,04,53,7.70
2018,10,21,04,54,7.60
2018,10,21,04,55,7.60
2018,10,21,04,56,7.60
2018,10,21,04,57,7.60
2018,10,21,04,58,7.60
2018,10,21,04,59,7.60
2018,10,21,05,01,7.60
2018,10,21,05,02,7.60
2018,10,21,05,03,7.60
2018,10,21,05,04,7.60
2018,10,21,05,06,7.60
2018,10,21,05,07,7.60
2018,10,21,05,09,7.60
2018,10,21,05,10,7.60
2018,10,21,05,12,7.60
2018,10,21,05,13,7.60
2018,10,21,05,15,7.60
2018,10,21,05,16,7.60
2018,10,21,05,17,7.60
2018,10,21,05,19,7.60
2018,10,21,05,20,7.60
2018,10,21,05,22,7.60
2018,10,21,05,23,7.60
2018,10,21,05,24,7.60
2018,10,21,05,25,7.60
2018,10,21,05,26,7.60
2018,10,21,05,28,7.60
2018,10,21,05,30,7.60
2018,10,21,05,32,7.50
2018,10,21,05,33,7.50
2018,10,21,05,34,7.50
2018,10,21,05,35,7.50
2018,10,21,05,37,7.50
2018,10,21,05,38,7.50
2018,10,21,05,39,7.50
2018,10,21,05,40,7.50
2018,10,21,05,41,7.50
2018,10,21,05,42,7.50
2018,10,21,05,43,7.50
2018,10,21,05,44,7.50
2018,10,21,05,45,7.50
2018,10,21,05,46,7.50
2018,10,21,05,48,7.40
2018,10,21,05,50,7.40
2018,10,21,05,51,7.40
2018,10,21,05,52,7.40
2018,10,21,05,53,7.40
2018,10,21,05,54,7.30
2018,10,21,05,55,7.30
2018,10,21,05,56,7.30
2018,10,21,05,57,7.30
2018,10,21,05,59,7.30
2018,10,21,06,00,7.30
2018,10,21,06,01,7.30
2018,10,21,06,02,7.30
2018,10,21,06,03,7.30
2018,10,21,06,04,7.30
2018,10,21,06,05,7.30
2018,10,21,06,07,7.20
2018,10,21,06,08,7.20
2018,10,21,06,09,7.20
2018,10,21,06,10,7.20
2018,10,21,06,11,7.10
2018,10,21,06,12,7.10
2018,10,21,06,14,7.00
2018,10,21,06,15,7.00
2018,10,21,06,16,6.90
2018,10,21,06,17,6.90
2018,10,21,06,18,6.90
2018,10,21,06,19,6.90
2018,10,21,06,21,6.90
2018,10,21,06,23,6.90
2018,10,21,06,24,6.90
2018,10,21,06,25,6.80
2018,10,21,06,26,6.80
2018,10,21,06,27,6.80
2018,10,21,06,28,6.90
2018,10,21,06,29,6.90
2018,10,21,06,31,6.90
2018,10,21,06,32,6.90
2018,10,21,06,34,6.90
2018,10,21,06,35,6.90
2018,10,21,06,36,6.90
2018,10,21,06,38,6.90
2018,10,21,06,39,6.90
2018,10,21,06,41,7.00
2018,10,21,06,42,7.00
2018,10,21,06,43,7.00
2018,10,21,06,44,7.00
2018,10,21,06,45,7.10
2018,10,21,06,46,7.10
2018,10,21,06,47,7.10
2018,10,21,06,48,7.10
2018,10,21,06,49,7.10
2018,10,21,06,50,7.10
2018,10,21,06,51,7.10
2018,10,21,06,52,7.10
2018,10,21,06,53,7.10
2018,10,21,06,54,7.10
2018,10,21,06,55,7.10
2018,10,21,06,57,7.10
2018,10,21,06,58,7.10
2018,10,21,06,59,7.10
2018,10,21,07,00,7.10
2018,10,21,07,02,7.10
2018,10,21,07,03,7.10
2018,10,21,07,04,7.10
2018,10,21,07,06,7.10
2018,10,21,07,07,7.10
2018,10,21,07,09,7.00
2018,10,21,07,11,7.00
2018,10,21,07,13,6.90
2018,10,21,07,15,6.90
2018,10,21,07,17,6.90
2018,10,21,07,18,6.90
2018,10,21,07,19,6.90
2018,10,21,07,20,6.90
2018,10,21,07,21,6.90
2018,10,21,07,23,6.90
2018,10,21,07,24,6.90
2018,10,21,07,25,6.80
2018,10,21,07,26,6.80
2018,10,21,07,27,6.80
2018,10,21,07,28,6.80
2018,10,21,07,30,6.70
2018,10,21,07,31,6.70
2018,10,21,07,32,6.70
2018,10,21,07,34,6.70
2018,10,21,07,36,6.70
2018,10,21,07,38,6.70
2018,10,21,07,40,6.70
2018,10,21,07,41,6.70
2018,10,21,07,43,6.70
2018,10,21,07,44,6.70
2018,10,21,07,45,6.70
2018,10,21,07,46,6.70
2018,10,21,07,47,6.70
2018,10,21,07,48,6.70
2018,10,21,07,49,6.70
2018,10,21,07,50,6.70
2018,10,21,07,51,6.70
2018,10,21,07,53,6.70
2018,10,21,07,55,6.70
2018,10,21,07,56,6.70
2018,10,21,07,57,6.70
2018,10,21,07,58,6.70
2018,10,21,07,59,6.70
2018,10,21,08,01,6.70
2018,10,21,08,02,6.70
2018,10,21,08,03,6.70
2018,10,21,08,04,6.60
2018,10,21,08,05,6.60
2018,10,21,08,07,6.60
2018,10,21,08,10,6.50
2018,10,21,08,11,6.50
2018,10,21,08,12,6.50
2018,10,21,08,13,6.50
2018,10,21,08,15,6.50
2018,10,21,08,17,6.50
2018,10,21,08,18,6.50
2018,10,21,08,20,6.50
2018,10,21,08,21,6.60
2018,10,21,08,22,6.60
2018,10,21,08,23,6.60
2018,10,21,08,25,6.60
2018,10,21,08,26,6.60
2018,10,21,08,29,6.60
2018,10,21,08,30,6.60
2018,10,21,08,31,6.60
2018,10,21,08,33,6.60
2018,10,21,08,35,6.60
2018,10,21,08,38,6.60
2018,10,21,08,39,6.60
2018,10,21,08,41,6.60
2018,10,21,08,42,6.60
2018,10,21,08,43,6.60
2018,10,21,08,44,6.60
2018,10,21,08,46,6.60
2018,10,21,08,47,6.60
2018,10,21,08,48,6.60
2018,10,21,08,50,6.60
2018,10,21,08,52,6.60
2018,10,21,08,54,6.60
2018,10,21,08,55,6.60
2018,10,21,08,56,6.60
2018,10,21,08,58,6.60
2018,10,21,09,00,6.60
2018,10,21,09,02,6.60
2018,10,21,09,04,6.60
2018,10,21,09,05,6.60
2018,10,21,09,08,6.60
2018,10,21,09,09,6.60
2018,10,21,09,10,6.70
2018,10,21,09,13,6.70
2018,10,21,09,14,6.60
2018,10,21,09,15,6.70
2018,10,21,09,17,6.70
2018,10,21,09,18,6.70
2018,10,21,09,21,6.60
2018,10,21,09,23,6.60
2018,10,21,09,24,6.60
2018,10,21,09,25,6.70
2018,10,21,09,28,6.70
2018,10,21,09,29,6.70
2018,10,21,09,30,6.70
2018,10,21,09,31,6.70
2018,10,21,09,33,6.70
2018,10,21,09,34,6.80
2018,10,21,09,35,6.80
2018,10,21,09,36,6.80
2018,10,21,09,38,6.80
2018,10,21,09,39,6.80
2018,10,21,09,41,6.80
2018,10,21,09,43,6.80
2018,10,21,09,45,6.90
2018,10,21,09,46,6.90
2018,10,21,09,47,6.90
2018,10,21,09,48,6.90
2018,10,21,09,51,6.90
2018,10,21,09,52,6.90
2018,10,21,09,53,6.90
2018,10,21,09,56,7.00
2018,10,21,09,57,7.10
2018,10,21,09,59,7.00
2018,10,21,10,00,7.00
2018,10,21,10,01,7.00
2018,10,21,10,04,7.00
2018,10,21,10,05,7.00
2018,10,21,10,06,7.00
2018,10,21,10,08,6.90
2018,10,21,10,09,6.90
2018,10,21,10,11,6.90
2018,10,21,10,13,6.90
2018,10,21,10,14,6.90
2018,10,21,10,15,6.90
2018,10,21,10,17,6.90
2018,10,21,10,18,6.90
2018,10,21,10,20,6.90
2018,10,21,10,21,6.90
2018,10,21,10,23,6.90
2018,10,21,10,24,6.90
2018,10,21,10,26,6.90
2018,10,21,10,28,6.90
2018,10,21,10,29,7.00
2018,10,21,10,31,7.00
2018,10,21,10,32,7.10
2018,10,21,10,33,7.10
2018,10,21,10,34,7.10
2018,10,21,10,35,7.10
2018,10,21,10,36,7.20
2018,10,21,10,38,7.20
2018,10,21,10,39,7.20
2018,10,21,10,41,7.20
2018,10,21,10,42,7.20
2018,10,21,10,43,7.30
2018,10,21,10,44,7.30
2018,10,21,10,46,7.30
2018,10,21,10,47,7.30
2018,10,21,10,49,7.30
2018,10,21,10,50,7.30
2018,10,21,10,52,7.40
2018,10,21,10,53,7.40
2018,10,21,10,54,7.40
2018,10,21,10,55,7.40
2018,10,21,10,57,7.50
2018,10,21,10,58,7.50
2018,10,21,10,59,7.50
2018,10,21,11,01,7.50
2018,10,21,11,03,7.50
2018,10,21,11,04,7.40
2018,10,21,11,06,7.40
2018,10,21,11,08,7.40
2018,10,21,11,09,7.40
2018,10,21,11,11,7.50
2018,10,21,11,13,7.50
2018,10,21,11,14,7.60
2018,10,21,11,16,7.60
2018,10,21,11,17,7.60
2018,10,21,11,18,7.60
2018,10,21,11,19,7.60
2018,10,21,11,20,7.60
2018,10,21,11,22,7.60
2018,10,21,11,24,7.60
2018,10,21,11,25,7.60
2018,10,21,11,27,7.60
2018,10,21,11,29,7.70
2018,10,21,11,30,7.70
2018,10,21,11,32,7.80
2018,10,21,11,33,7.80
2018,10,21,11,34,7.70
2018,10,21,11,35,7.70
2018,10,21,11,36,7.80
2018,10,21,11,39,7.80
2018,10,21,11,42,7.80
2018,10,21,11,43,7.80
2018,10,21,11,44,7.80
2018,10,21,11,47,7.90
2018,10,21,11,49,7.90
2018,10,21,11,50,8.00
2018,10,21,11,51,8.10
2018,10,21,11,53,8.10
2018,10,21,11,54,8.10
2018,10,21,11,55,8.20
2018,10,21,11,57,8.30
2018,10,21,11,58,8.30
2018,10,21,12,00,8.30
2018,10,21,12,01,8.40
2018,10,21,12,02,8.30
2018,10,21,12,04,8.30
2018,10,21,12,05,8.30
2018,10,21,12,07,8.40
2018,10,21,12,09,8.40
2018,10,21,12,10,8.40
2018,10,21,12,12,8.40
2018,10,21,12,13,8.50
2018,10,21,12,14,8.50
2018,10,21,12,15,8.60
2018,10,21,12,16,8.60
2018,10,21,12,17,8.60
2018,10,21,12,18,8.70
2018,10,21,12,20,8.70
2018,10,21,12,21,8.70
2018,10,21,12,22,8.70
2018,10,21,12,23,8.70
2018,10,21,12,24,8.70
2018,10,21,12,26,8.70
2018,10,21,12,27,8.70
2018,10,21,12,29,8.70
2018,10,21,12,30,8.80
2018,10,21,12,32,8.80
2018,10,21,12,33,8.80
2018,10,21,12,34,8.90
2018,10,21,12,35,9.00
2018,10,21,12,37,9.00
2018,10,21,12,39,9.00
2018,10,21,12,40,9.00
2018,10,21,12,42,9.00
2018,10,21,12,43,9.00
2018,10,21,12,44,9.00
2018,10,21,12,45,9.00
2018,10,21,12,46,9.00
2018,10,21,12,47,9.00
2018,10,21,12,48,9.10
2018,10,21,12,49,9.10
2018,10,21,12,50,9.10
2018,10,21,12,51,9.10
2018,10,21,12,53,9.20
2018,10,21,12,55,9.20
2018,10,21,12,57,9.30
2018,10,21,12,58,9.40
2018,10,21,12,59,9.30
2018,10,21,13,00,9.30
2018,10,21,13,01,9.30
2018,10,21,13,03,9.30
2018,10,21,13,04,9.30
2018,10,21,13,05,9.30
2018,10,21,13,06,9.30
2018,10,21,13,08,9.30
2018,10,21,13,09,9.30
2018,10,21,13,10,9.40
2018,10,21,13,12,9.40
2018,10,21,13,13,9.40
2018,10,21,13,14,9.40
2018,10,21,13,16,9.40
2018,10,21,13,17,9.40
2018,10,21,13,18,9.40
2018,10,21,13,19,9.50
2018,10,21,13,20,9.60
2018,10,21,13,21,9.60
2018,10,21,13,22,9.60
2018,10,21,13,23,9.70
2018,10,21,13,24,9.80
2018,10,21,13,25,9.80
2018,10,21,13,26,9.80
2018,10,21,13,28,9.90
2018,10,21,13,29,10.10
2018,10,21,13,31,10.30
2018,10,21,13,32,10.40
2018,10,21,13,33,10.60
2018,10,21,13,34,10.70
2018,10,21,13,36,10.80
2018,10,21,13,38,11.00
2018,10,21,13,39,11.10
2018,10,21,13,41,11.20
2018,10,21,13,42,11.30
2018,10,21,13,43,11.40
2018,10,21,13,44,11.50
2018,10,21,13,45,11.50
2018,10,21,13,46,11.60
2018,10,21,13,47,11.60
2018,10,21,13,48,11.70
2018,10,21,13,49,11.70
2018,10,21,13,50,11.70
2018,10,21,13,52,11.80
2018,10,21,13,53,11.80
2018,10,21,13,54,11.80
2018,10,21,13,55,11.90
2018,10,21,13,57,12.10
2018,10,21,13,58,12.10
2018,10,21,13,59,12.20
2018,10,21,14,00,12.20
2018,10,21,14,01,12.20
2018,10,21,14,04,12.30
2018,10,21,14,05,12.30
2018,10,21,14,06,12.40
2018,10,21,14,08,12.50
2018,10,21,14,09,12.70
2018,10,21,14,11,12.70
2018,10,21,14,12,12.70
2018,10,21,14,13,12.70
2018,10,21,14,14,12.70
2018,10,21,14,16,12.80
2018,10,21,14,18,12.90
2018,10,21,14,19,12.90
2018,10,21,14,20,13.00
2018,10,21,14,21,13.10
2018,10,21,14,22,13.20
2018,10,21,14,24,13.30
2018,10,21,14,25,13.40
2018,10,21,14,26,13.50
2018,10,21,14,27,13.60
2018,10,21,14,28,13.70
2018,10,21,14,29,13.80
2018,10,21,14,30,13.80
2018,10,21,14,31,13.90
2018,10,21,14,32,14.00
2018,10,21,14,33,14.10
2018,10,21,14,35,14.20
2018,10,21,14,37,14.40
2018,10,21,14,38,14.60
2018,10,21,14,39,14.70
2018,10,21,14,41,14.80
2018,10,21,14,42,14.80
2018,10,21,14,43,14.90
2018,10,21,14,44,14.90
2018,10,21,14,46,15.00
2018,10,21,14,47,15.10
2018,10,21,14,48,15.10
2018,10,21,14,49,15.20
2018,10,21,14,50,15.20
2018,10,21,14,51,15.30
2018,10,21,14,52,15.30
2018,10,21,14,53,15.40
2018,10,21,14,54,15.40
2018,10,21,14,55,15.50
2018,10,21,14,56,15.60
2018,10,21,14,57,15.60
2018,10,21,14,58,15.60
2018,10,21,14,59,15.70
2018,10,21,15,00,15.70
2018,10,21,15,01,15.70
2018,10,21,15,02,15.80
2018,10,21,15,03,15.80
2018,10,21,15,04,15.90
2018,10,21,15,05,16.00
2018,10,21,15,06,16.10
2018,10,21,15,08,16.20
2018,10,21,15,09,16.30
2018,10,21,15,11,16.40
2018,10,21,15,12,16.60
2018,10,21,15,13,16.60
2018,10,21,15,14,16.60
2018,10,21,15,15,16.70
2018,10,21,15,17,16.70
2018,10,21,15,18,16.70
2018,10,21,15,19,16.80
2018,10,21,15,20,16.70
2018,10,21,15,21,16.70
2018,10,21,15,22,16.80
2018,10,21,15,23,16.80
2018,10,21,15,24,16.80
2018,10,21,15,25,16.80
2018,10,21,15,26,16.90
2018,10,21,15,27,16.90
2018,10,21,15,28,16.90
2018,10,21,15,30,17.10
2018,10,21,15,32,17.10
2018,10,21,15,33,17.10
2018,10,21,15,34,17.10
2018,10,21,15,36,17.10
2018,10,21,15,38,17.20
2018,10,21,15,39,17.20
2018,10,21,15,40,17.20
2018,10,21,15,41,17.30
2018,10,21,15,42,17.30
2018,10,21,15,43,17.40
2018,10,21,15,45,17.40
2018,10,21,15,46,17.40
2018,10,21,15,48,17.40
2018,10,21,15,49,17.40
2018,10,21,15,51,17.50
2018,10,21,15,52,17.60
2018,10,21,15,54,17.50
2018,10,21,15,55,17.50
2018,10,21,15,56,17.50
2018,10,21,15,57,17.50
2018,10,21,15,58,17.50
2018,10,21,16,00,17.50
2018,10,21,16,02,17.50
2018,10,21,16,03,17.50
2018,10,21,16,04,17.50
2018,10,21,16,05,17.40
2018,10,21,16,06,17.40
2018,10,21,16,08,17.40
2018,10,21,16,09,17.40
2018,10,21,16,10,17.40
2018,10,21,16,12,17.60
2018,10,21,16,13,17.60
2018,10,21,16,15,17.70
2018,10,21,16,17,17.60
2018,10,21,16,18,17.60
2018,10,21,16,19,17.60
2018,10,21,16,21,17.50
2018,10,21,16,24,17.40
2018,10,21,16,25,17.40
2018,10,21,16,27,17.30
2018,10,21,16,28,17.30
2018,10,21,16,29,17.30
2018,10,21,16,30,17.30
2018,10,21,16,32,17.30
2018,10,21,16,33,17.30
2018,10,21,16,35,17.30
2018,10,21,16,36,17.30
2018,10,21,16,37,17.30
2018,10,21,16,38,17.30
2018,10,21,16,39,17.20
2018,10,21,16,41,17.20
2018,10,21,16,42,17.10
2018,10,21,16,43,17.10
2018,10,21,16,44,17.00
2018,10,21,16,45,16.90
2018,10,21,16,46,16.90
2018,10,21,16,48,16.70
2018,10,21,16,49,16.70
2018,10,21,16,50,16.60
2018,10,21,16,52,16.40
2018,10,21,16,53,16.40
2018,10,21,16,55,16.30
2018,10,21,16,56,16.20
2018,10,21,16,58,16.10
2018,10,21,16,59,16.00
2018,10,21,17,00,15.90
2018,10,21,17,01,15.80
2018,10,21,17,02,15.80
2018,10,21,17,04,15.70
2018,10,21,17,05,15.70
2018,10,21,17,07,15.60
2018,10,21,17,08,15.60
2018,10,21,17,10,15.40
2018,10,21,17,11,15.40
2018,10,21,17,13,15.40
2018,10,21,17,15,15.30
2018,10,21,17,16,15.30
2018,10,21,17,18,15.30
2018,10,21,17,19,15.30
2018,10,21,17,20,15.30
2018,10,21,17,21,15.30
2018,10,21,17,23,15.30
2018,10,21,17,24,15.20
2018,10,21,17,26,15.20
2018,10,21,17,27,15.20
2018,10,21,17,28,15.20
2018,10,21,17,29,15.20
2018,10,21,17,30,15.20
2018,10,21,17,31,15.20
2018,10,21,17,32,15.20
2018,10,21,17,33,15.20
2018,10,21,17,35,15.20
2018,10,21,17,36,15.10
2018,10,21,17,37,15.10
2018,10,21,17,39,15.10
2018,10,21,17,40,15.10
2018,10,21,17,41,15.00
2018,10,21,17,43,15.00
2018,10,21,17,45,14.90
2018,10,21,17,46,14.90
2018,10,21,17,47,14.90
2018,10,21,17,48,14.90
2018,10,21,17,49,14.80
2018,10,21,17,50,14.80
2018,10,21,17,51,14.80
2018,10,21,17,52,14.70
2018,10,21,17,53,14.70
2018,10,21,17,54,14.70
2018,10,21,17,56,14.60
2018,10,21,17,58,14.50
2018,10,21,17,59,14.50
2018,10,21,18,00,14.40
2018,10,21,18,01,14.30
2018,10,21,18,02,14.30
2018,10,21,18,04,14.20
2018,10,21,18,07,14.10
2018,10,21,18,08,14.00
2018,10,21,18,09,13.90
2018,10,21,18,12,13.90
2018,10,21,18,13,13.80
2018,10,21,18,16,13.80
2018,10,21,18,17,13.70
2018,10,21,18,18,13.70
2018,10,21,18,20,13.70
2018,10,21,18,22,13.60
2018,10,21,18,23,13.60
2018,10,21,18,24,13.50
2018,10,21,18,26,13.50
2018,10,21,18,27,13.40
2018,10,21,18,28,13.40
2018,10,21,18,29,13.40
2018,10,21,18,30,13.40
2018,10,21,18,32,13.30
2018,10,21,18,33,13.30
2018,10,21,18,34,13.30
2018,10,21,18,35,13.30
2018,10,21,18,36,13.30
2018,10,21,18,38,13.20
2018,10,21,18,40,13.20
2018,10,21,18,41,13.20
2018,10,21,18,42,13.10
2018,10,21,18,43,13.10
2018,10,21,18,44,13.10
2018,10,21,18,46,13.00
2018,10,21,18,47,12.90
2018,10,21,18,48,12.90
2018,10,21,18,50,12.90
2018,10,21,18,51,12.80
2018,10,21,18,52,12.80
2018,10,21,18,54,12.80
2018,10,21,18,56,12.70
2018,10,21,18,58,12.70
2018,10,21,18,59,12.60
2018,10,21,19,01,12.60
2018,10,21,19,02,12.50
2018,10,21,19,03,12.50
2018,10,21,19,05,12.40
2018,10,21,19,06,12.30
2018,10,21,19,07,12.30
2018,10,21,19,08,12.30
2018,10,21,19,10,12.20
2018,10,21,19,11,12.20
2018,10,21,19,13,12.20
2018,10,21,19,14,12.20
2018,10,21,19,15,12.10
2018,10,21,19,17,12.10
2018,10,21,19,19,12.10
2018,10,21,19,20,12.00
2018,10,21,19,21,12.00
2018,10,21,19,22,12.00
2018,10,21,19,23,11.90
2018,10,21,19,24,11.90
2018,10,21,19,25,11.90
2018,10,21,19,26,11.90
2018,10,21,19,27,11.80
2018,10,21,19,29,11.80
2018,10,21,19,30,11.80
2018,10,21,19,31,11.70
2018,10,21,19,32,11.70
2018,10,21,19,33,11.70
2018,10,21,19,34,11.70
2018,10,21,19,36,11.60
2018,10,21,19,37,11.60
2018,10,21,19,38,11.60
2018,10,21,19,40,11.50
2018,10,21,19,41,11.50
2018,10,21,19,42,11.40
2018,10,21,19,43,11.40
2018,10,21,19,44,11.40
2018,10,21,19,45,11.40
2018,10,21,19,46,11.30
2018,10,21,19,48,11.30
2018,10,21,19,49,11.30
2018,10,21,19,51,11.30
2018,10,21,19,52,11.30
2018,10,21,19,54,11.20
2018,10,21,19,55,11.20
2018,10,21,19,56,11.20
2018,10,21,19,57,11.20
2018,10,21,19,58,11.20
2018,10,21,19,59,11.20
2018,10,21,20,01,11.10
2018,10,21,20,02,11.10
2018,10,21,20,04,11.10
2018,10,21,20,05,11.10
2018,10,21,20,06,11.00
2018,10,21,20,07,11.00
2018,10,21,20,08,10.90
2018,10,21,20,10,10.90
2018,10,21,20,11,10.90
2018,10,21,20,12,10.80
2018,10,21,20,13,10.80
2018,10,21,20,14,10.80
2018,10,21,20,15,10.80
2018,10,21,20,17,10.70
2018,10,21,20,18,10.70
2018,10,21,20,19,10.70
2018,10,21,20,20,10.60
2018,10,21,20,21,10.60
2018,10,21,20,23,10.60
2018,10,21,20,24,10.60
2018,10,21,20,25,10.50
2018,10,21,20,26,10.50
2018,10,21,20,27,10.40
2018,10,21,20,28,10.40
2018,10,21,20,29,10.40
2018,10,21,20,31,10.40
2018,10,21,20,32,10.30
2018,10,21,20,33,10.30
2018,10,21,20,34,10.30
2018,10,21,20,35,10.30
2018,10,21,20,37,10.20
2018,10,21,20,38,10.20
2018,10,21,20,39,10.20
2018,10,21,20,40,10.20
2018,10,21,20,41,10.10
2018,10,21,20,42,10.10
2018,10,21,20,43,10.10
2018,10,21,20,44,10.10
2018,10,21,20,45,10.00
2018,10,21,20,47,9.90
2018,10,21,20,49,9.90
2018,10,21,20,50,9.90
2018,10,21,20,51,9.90
2018,10,21,20,52,9.80
2018,10,21,20,53,9.80
2018,10,21,20,54,9.80
2018,10,21,20,55,9.80
2018,10,21,20,57,9.70
2018,10,21,20,58,9.70
2018,10,21,20,59,9.70
2018,10,21,21,01,9.70
2018,10,21,21,02,9.70
2018,10,21,21,03,9.70
2018,10,21,21,04,9.60
2018,10,21,21,05,9.60
2018,10,21,21,06,9.60
2018,10,21,21,07,9.60
2018,10,21,21,08,9.60
2018,10,21,21,09,9.60
2018,10,21,21,10,9.60
2018,10,21,21,11,9.50
2018,10,21,21,12,9.50
2018,10,21,21,14,9.40
2018,10,21,21,16,9.40
2018,10,21,21,17,9.40
2018,10,21,21,19,9.40
2018,10,21,21,21,9.30
2018,10,21,21,22,9.30
2018,10,21,21,23,9.30
2018,10,21,21,25,9.30
2018,10,21,21,26,9.20
2018,10,21,21,27,9.20
2018,10,21,21,28,9.20
2018,10,21,21,29,9.20
2018,10,21,21,30,9.20
2018,10,21,21,31,9.20
2018,10,21,21,32,9.10
2018,10,21,21,33,9.10
2018,10,21,21,34,9.10
2018,10,21,21,35,9.10
2018,10,21,21,36,9.10
2018,10,21,21,37,9.00
2018,10,21,21,39,9.00
2018,10,21,21,40,8.90
2018,10,21,21,41,8.90
2018,10,21,21,43,8.90
2018,10,21,21,44,8.90
2018,10,21,21,46,8.90
2018,10,21,21,47,8.90
2018,10,21,21,48,8.80
2018,10,21,21,49,8.80
2018,10,21,21,50,8.80
2018,10,21,21,51,8.80
2018,10,21,21,53,8.80
2018,10,21,21,55,8.70
2018,10,21,21,56,8.70
2018,10,21,21,57,8.70
2018,10,21,21,58,8.70
2018,10,21,21,59,8.60
2018,10,21,22,00,8.60
2018,10,21,22,01,8.60
2018,10,21,22,02,8.60
2018,10,21,22,03,8.60
2018,10,21,22,05,8.50
2018,10,21,22,06,8.50
2018,10,21,22,07,8.50
2018,10,21,22,08,8.50
2018,10,21,22,09,8.50
2018,10,21,22,10,8.50
2018,10,21,22,11,8.50
2018,10,21,22,12,8.40
2018,10,21,22,13,8.40
2018,10,21,22,14,8.40
2018,10,21,22,16,8.40
2018,10,21,22,17,8.40
2018,10,21,22,18,8.40
2018,10,21,22,19,8.40
2018,10,21,22,21,8.30
2018,10,21,22,22,8.30
2018,10,21,22,23,8.30
2018,10,21,22,24,8.30
2018,10,21,22,26,8.20
2018,10,21,22,27,8.20
2018,10,21,22,28,8.20
2018,10,21,22,30,8.20
2018,10,21,22,31,8.20
2018,10,21,22,32,8.10
2018,10,21,22,33,8.10
2018,10,21,22,34,8.10
2018,10,21,22,35,8.10
2018,10,21,22,36,8.10
2018,10,21,22,37,8.10
2018,10,21,22,38,8.00
2018,10,21,22,39,8.00
2018,10,21,22,40,8.00
2018,10,21,22,42,7.90
2018,10,21,22,43,7.90
2018,10,21,22,44,7.90
2018,10,21,22,45,7.90
2018,10,21,22,46,7.90
2018,10,21,22,47,7.90
2018,10,21,22,49,7.90
2018,10,21,22,50,7.80
2018,10,21,22,51,7.80
2018,10,21,22,52,7.80
2018,10,21,22,53,7.80
2018,10,21,22,55,7.80
2018,10,21,22,56,7.80
2018,10,21,22,58,7.70
2018,10,21,22,59,7.70
2018,10,21,23,00,7.70
2018,10,21,23,01,7.70
2018,10,21,23,02,7.70
2018,10,21,23,03,7.70
2018,10,21,23,05,7.70
2018,10,21,23,06,7.70
2018,10,21,23,08,7.60